Theta_e
301 301 298 300 305 305 304 301 297 297 298 300 302 302 306 305 305 305 300 299 298 299 299 299 299 300 302 303 304 304 307 309 310 309 306 305 305 307 308 310 317 323 327 332 332
304 304 300 300 303 299 298 298 298 299 300 301 301 304 306 304 306 307 303 299 298 298 298 302 302 301 300 301 303 304 304 305 304 303 302 303 303 304 303 303 313 319 320 321 327
305 304 304 301 298 299 301 302 302 303 305 305 305 306 304 304 306 306 304 302 300 301 300 302 302 301 301 301 302 302 302 303 303 302 303 302 302 302 302 303 305 302 303 305 316
303 303 301 300 299 302 305 305 306 305 305 305 303 302 300 305 305 304 304 302 298 301 301 300 300 300 299 299 300 300 301 302 302 303 303 302 302 302 302 302 303 303 302 303 310
304 303 300 297 300 303 304 303 303 301 301 301 301 300 300 303 304 305 303 297 298 298 300 301 300 301 301 301 301 301 301 302 302 302 302 302 302 301 301 301 302 301 301 301 302
302 300 298 299 301 301 301 301 300 299 298 300 300 300 302 304 304 304 302 297 298 298 298 301 301 301 301 301 301 302 303 302 302 303 302 302 302 302 302 302 302 302 301 301 302
301 298 298 298 300 301 299 298 297 297 298 300 301 300 303 303 304 299 297 299 298 299 299 299 301 301 302 301 302 302 301 301 302 302 302 303 303 303 303 303 302 302 302 302 301
298 299 303 302 300 298 298 299 300 301 301 299 299 300 303 303 298 297 296 296 298 299 300 300 301 301 301 301 302 301 301 302 302 303 304 303 304 304 304 303 302 302 302 302 301
299 301 302 299 297 300 300 301 301 300 298 299 302 303 303 298 298 295 296 298 298 299 300 301 301 301 302 300 299 298 296 301 302 303 303 303 303 302 303 303 302 303 303 303 303
300 302 300 298 301 300 301 301 302 299 299 301 300 300 300 297 295 297 299 299 299 301 301 302 301 301 300 301 296 294 298 302 302 303 303 304 304 303 303 303 302 303 303 303 301
301 300 299 300 301 301 299 299 298 302 298 296 295 296 296 295 296 298 299 299 301 301 297 302 303 301 298 299 300 301 302 301 302 302 303 304 303 303 303 303 304 303 303 303 303
300 301 300 301 300 300 297 297 296 294 296 298 295 295 297 295 297 298 299 300 301 296 301 293 299 300 301 303 303 304 304 304 304 304 304 304 304 304 304 303 303 304 303 303 303
299 301 301 301 300 299 297 296 294 294 299 297 296 296 294 296 296 298 299 299 299 296 297 301 300 301 302 303 304 303 304 303 304 304 304 304 304 304 304 304 304 304 304 303 303
300 301 301 300 303 300 300 296 294 295 292 295 296 296 296 296 297 300 299 300 301 297 299 300 300 302 302 302 303 304 304 305 306 306 307 304 304 304 303 302 303 304 304 303 303
300 301 301 301 300 299 296 294 295 299 293 294 294 295 296 297 297 300 299 300 300 297 299 299 301 301 301 302 303 304 304 304 305 305 305 305 306 301 302 302 299 299 299 300 302
300 300 301 301 298 296 294 295 296 293 290 290 295 294 293 296 298 299 299 300 300 301 299 299 301 301 302 303 302 302 301 301 303 305 303 300 301 298 300 298 298 298 299 299 300
300 300 300 300 298 296 295 297 296 290 289 288 292 294 294 295 297 298 299 300 300 297 294 294 295 302 304 302 303 301 296 296 301 299 299 299 303 298 298 298 297 298 298 299 300
300 300 300 298 296 295 296 294 291 285 284 293 294 295 296 296 295 296 298 298 301 298 297 287 295 293 300 301 302 300 302 303 303 304 303 301 303 300 297 297 296 297 299 302 300
299 300 299 297 296 295 296 290 290 289 294 294 294 288 287 296 294 292 295 298 300 297 295 293 293 297 299 303 301 299 301 301 303 296 301 295 296 302 295 296 295 296 299 301 301
300 299 297 296 296 295 293 293 288 293 294 294 290 291 287 288 293 289 293 297 299 297 298 295 297 292 297 301 299 297 299 299 299 301 300 300 298 295 294 295 294 294 295 297 299
301 297 297 296 295 295 293 287 285 293 294 293 293 288 294 292 296 290 294 297 298 298 298 296 297 295 298 299 300 298 298 298 303 302 301 302 297 294 293 294 294 292 293 294 295
300 298 296 296 295 295 288 283 292 293 294 294 295 294 291 296 297 290 294 294 299 298 294 296 299 300 298 300 299 298 298 298 301 299 297 300 297 293 292 293 293 291 291 291 293
298 297 295 296 293 288 287 287 292 293 293 294 293 295 296 294 294 295 295 298 299 296 294 296 294 298 299 299 300 298 298 299 298 300 297 295 295 294 291 292 292 291 290 290 291
297 298 294 295 298 291 287 288 289 293 294 294 295 295 296 291 293 292 296 297 297 296 297 297 299 301 302 302 302 299 297 297 297 296 298 296 295 292 291 291 291 290 290 290 290
300 298 296 294 292 295 295 291 291 290 293 294 292 294 292 290 292 291 296 295 296 295 295 291 286 295 295 295 302 299 297 295 298 298 297 296 294 293 291 290 290 290 290 290 290
301 296 295 295 296 295 296 294 291 292 292 293 291 294 294 289 294 295 295 294 294 292 294 292 285 290 290 299 301 299 297 295 296 297 296 298 295 293 291 290 289 289 289 289 289
299 296 295 295 295 294 295 295 294 294 294 295 294 294 294 294 295 295 294 294 293 292 293 290 285 284 291 295 297 295 297 294 295 296 296 298 297 293 291 290 289 289 289 288 288
Wind_Speed
8 13 10 8 10 10 12 15 16 14 14 15 15 17 20 21 13 10 18 14 13 12 13 11 10 14 5 4 4 5 2 3 4 3 7 23 12 19 24 17 17 14 11 12 12
10 13 11 9 12 14 14 14 15 15 14 15 16 18 20 20 6 4 17 16 16 15 13 14 17 17 9 4 3 2 3 4 4 9 12 20 17 19 16 27 11 13 13 8 11
8 13 9 11 13 12 12 14 14 13 15 16 17 18 19 15 7 4 12 16 19 15 12 10 11 11 4 9 3 4 4 6 14 27 21 18 23 19 14 6 13 20 27 22 13
11 13 14 14 9 11 13 14 14 14 14 15 17 18 18 13 4 6 12 19 13 10 12 12 11 8 3 4 11 6 14 15 17 24 28 18 24 19 21 26 30 34 32 29 15
12 15 14 10 10 13 14 14 14 13 13 14 14 16 17 9 4 12 16 9 14 11 8 10 10 9 4 7 12 6 7 15 21 26 24 28 19 18 36 33 29 36 34 32 26
11 14 13 10 12 15 15 15 15 14 12 11 12 11 10 4 5 9 17 12 17 14 10 6 8 9 10 7 6 10 15 20 20 25 24 23 27 26 34 40 40 32 40 39 29
13 16 12 13 15 17 17 14 12 11 10 10 9 7 5 2 9 13 11 12 13 12 13 8 10 9 10 7 14 16 16 16 20 25 14 25 18 26 45 39 37 38 33 43 41
13 11 13 15 16 14 11 10 10 9 8 7 6 3 2 5 8 12 17 17 5 7 10 13 9 11 7 10 8 5 4 7 3 5 9 8 19 18 28 25 30 33 35 38 41
12 13 14 13 10 10 11 11 8 7 9 5 8 5 3 7 12 22 15 12 12 7 6 7 9 5 6 3 4 3 4 9 13 8 8 8 20 6 13 15 23 23 27 36 38
12 14 12 10 10 10 10 7 6 7 8 6 5 3 3 12 21 11 14 14 11 10 8 4 1 2 3 2 5 5 8 9 14 7 8 15 20 17 23 25 27 26 29 23 23
13 10 9 10 10 11 9 3 3 2 8 5 4 3 9 18 15 10 12 13 4 4 4 4 4 11 10 10 14 16 18 22 26 22 20 21 25 24 22 22 26 29 30 31 29
12 7 9 9 10 10 9 7 7 4 3 3 9 7 8 17 8 9 11 7 3 2 8 5 9 14 9 11 14 16 20 24 21 19 13 18 24 21 20 18 29 30 30 33 32
11 7 7 8 7 10 11 10 7 3 1 4 7 5 10 14 8 11 12 14 4 4 2 7 13 16 12 12 15 18 15 18 22 22 18 22 24 24 20 26 32 33 33 31 29
9 7 7 7 4 7 7 10 8 2 4 6 5 4 12 15 3 7 9 5 3 4 6 7 8 4 15 13 15 14 8 12 14 13 6 4 10 2 8 8 7 19 21 31 35
7 5 6 6 5 6 8 9 4 3 4 6 6 6 17 5 10 3 18 3 6 6 2 7 13 15 13 9 10 11 18 15 20 17 13 8 5 5 7 9 15 13 18 20 21
6 4 5 4 5 7 9 8 1 6 3 6 5 8 9 6 7 14 6 7 13 5 3 15 20 6 6 11 15 19 12 20 11 6 4 3 6 4 5 11 17 20 26 21 24
4 4 4 5 6 8 9 3 4 6 3 8 4 6 4 5 6 7 6 7 4 7 7 8 7 6 4 8 7 12 7 4 4 2 5 2 2 2 15 17 14 17 32 36 28
4 5 4 4 5 7 7 5 7 4 4 2 4 6 3 7 4 7 7 5 5 4 4 2 9 3 5 7 10 11 3 3 5 4 8 4 3 1 18 18 24 27 29 26 16
6 6 5 5 4 5 3 5 7 5 1 3 4 6 6 5 1 7 4 3 3 5 3 4 7 5 8 6 9 8 7 14 4 4 2 2 5 1 21 18 20 25 29 2 12
8 5 6 5 3 3 4 3 3 1 1 0 3 2 1 6 6 6 4 2 4 3 0 4 7 3 7 6 7 5 8 5 3 4 4 3 4 9 21 22 18 17 21 18 16
10 3 4 4 2 0 3 5 3 4 2 3 2 2 1 3 4 3 5 4 1 4 8 3 4 8 5 7 15 11 8 5 4 5 5 6 1 11 18 17 15 13 18 20 23
11 1 3 7 2 2 3 5 4 4 3 1 2 3 4 2 3 2 3 5 6 4 5 3 4 6 4 4 12 10 10 8 3 5 3 5 2 15 15 13 15 15 19 22 23
11 6 6 10 2 1 1 2 2 3 3 3 3 4 1 2 2 4 4 6 8 1 2 3 3 5 9 5 4 5 16 15 6 1 9 4 6 11 16 15 19 18 21 24 24
11 3 2 7 4 7 5 3 1 3 3 4 2 1 1 1 3 4 4 4 11 6 6 3 3 0 2 6 4 10 19 16 10 3 6 8 12 17 18 16 18 23 24 27 31
9 3 7 2 4 5 5 6 4 3 5 8 2 4 4 1 2 4 4 6 4 6 6 3 2 3 10 8 2 10 14 17 13 13 4 7 11 15 16 16 22 27 29 31 36
12 8 8 3 11 8 5 7 8 3 7 4 4 5 7 5 7 3 2 2 3 6 4 4 3 2 5 4 7 6 15 15 9 13 5 8 9 10 18 27 30 30 31 31 31
14 14 8 9 7 4 5 7 9 11 9 5 9 3 5 12 17 19 15 8 8 3 3 2 2 3 4 5 3 5 12 8 5 15 7 8 4 10 16 20 27 27 30 29 29
Wind_Direction
15 13 2 360 359 344 337 340 344 351 353 349 351 356 1 360 8 19 37 25 4 352 352 352 355 5 50 1 317 307 314 300 290 319 327 337 352 330 334 336 339 15 78 123 170
356 359 358 352 340 343 345 353 4 360 356 354 351 353 358 359 29 36 19 8 0 353 347 4 356 353 349 322 308 186 209 238 263 320 319 321 323 330 339 330 309 52 53 93 165
344 339 346 345 347 360 2 3 358 353 350 345 342 343 353 5 82 21 345 348 341 348 1 6 338 344 299 319 265 250 240 284 293 305 310 316 311 318 315 293 293 324 320 330 316
323 326 335 336 341 345 352 342 332 328 328 329 331 340 352 21 65 347 337 333 348 359 352 356 339 350 316 299 298 307 288 292 303 304 304 301 299 291 280 269 286 292 298 300 313
312 317 328 333 332 339 334 324 322 324 324 327 336 346 353 13 56 332 325 341 360 345 9 349 348 1 355 310 314 287 290 298 296 296 290 297 294 282 283 285 292 292 293 289 283
301 329 331 328 325 330 327 324 323 329 334 335 335 341 7 30 15 320 315 315 345 343 343 3 343 322 291 267 273 297 313 299 290 287 283 278 277 274 271 280 280 275 279 279 281
320 326 321 319 321 324 326 325 336 343 342 336 336 341 26 21 318 314 317 324 321 328 326 317 298 317 318 311 292 309 305 296 277 263 262 260 270 255 252 258 268 276 271 276 270
326 330 327 324 326 336 349 355 352 349 359 1 13 33 54 357 341 334 321 310 306 281 306 313 315 304 263 274 289 267 253 294 209 256 249 139 251 260 278 258 255 268 272 266 269
317 325 330 338 354 359 355 351 7 45 28 58 35 40 35 327 330 331 328 334 322 339 315 285 297 276 302 320 305 288 254 259 295 236 271 211 273 312 294 273 273 279 295 266 261
318 329 340 355 1 2 356 3 57 54 37 59 28 328 329 327 329 348 351 335 339 359 349 270 271 283 239 183 273 271 278 260 271 276 286 283 275 272 271 279 277 278 283 281 263
332 340 353 357 1 4 10 34 27 29 51 32 348 302 315 336 351 6 340 329 1 332 11 337 279 270 248 223 253 270 267 267 270 274 277 271 268 272 269 259 260 263 268 273 271
333 352 358 357 1 14 22 65 58 7 331 9 358 336 332 345 331 14 353 359 335 267 321 358 255 266 264 280 274 271 275 275 278 276 265 276 270 264 260 255 249 249 246 252 258
336 341 353 352 6 5 28 42 22 7 72 348 341 1 349 346 331 321 328 322 246 321 275 258 264 306 298 301 295 280 267 274 274 292 274 268 273 264 258 250 251 255 252 245 244
334 340 346 354 358 358 357 3 358 121 78 307 355 348 346 324 295 340 352 322 319 251 298 284 277 280 314 298 291 288 254 292 289 296 304 124 294 82 262 237 254 256 259 241 245
327 332 335 349 336 339 338 341 357 122 41 307 321 335 343 33 314 310 333 285 242 254 66 275 304 307 305 275 290 271 292 280 275 274 289 243 256 283 340 18 346 332 329 345 275
303 310 316 324 326 335 336 339 84 44 291 331 319 349 5 358 339 331 334 299 278 291 214 262 278 267 233 290 295 290 299 286 272 250 245 302 178 314 23 337 327 330 327 317 310
286 297 287 308 317 327 335 332 32 95 329 313 333 348 354 317 341 357 325 12 32 350 358 326 299 289 261 313 296 328 338 310 1 343 223 286 178 278 7 351 331 319 311 303 301
252 273 274 296 298 319 334 48 71 231 233 307 327 321 40 12 322 331 334 12 51 3 308 37 332 358 307 317 323 314 288 287 313 312 286 180 250 196 12 343 337 326 312 294 287
242 246 261 269 284 319 355 53 195 207 210 1 336 52 326 354 79 11 332 338 58 40 4 351 285 324 327 331 5 327 316 296 260 247 260 202 344 75 352 346 339 345 348 115 104
211 219 242 246 268 315 76 184 167 247 66 108 110 101 345 298 21 28 311 275 347 23 167 277 290 220 287 357 310 289 297 330 292 312 296 5 60 332 344 343 347 343 355 12 77
183 227 214 204 198 279 139 211 215 191 137 113 155 49 325 321 333 296 270 301 200 291 313 255 186 297 1 2 1 2 2 348 287 25 326 326 62 358 346 336 337 339 1 21 62
172 184 191 171 104 75 136 180 158 159 158 120 127 171 193 316 290 295 269 209 350 7 341 275 299 294 254 20 25 12 0 11 353 4 319 287 344 18 344 341 343 356 17 35 67
170 163 178 172 148 305 338 344 212 141 169 172 184 218 275 196 307 248 272 275 322 109 318 319 305 310 341 336 359 7 11 7 344 292 31 352 314 351 352 359 5 14 29 45 63
155 131 128 174 187 142 149 214 199 202 182 174 192 243 230 302 216 276 277 288 336 22 358 315 275 352 277 299 339 358 2 2 5 27 337 11 331 351 360 1 11 21 34 48 57
151 163 160 203 230 173 152 142 138 165 217 179 341 203 162 246 298 229 249 303 328 17 5 85 198 311 271 251 206 6 9 356 6 1 21 352 11 359 360 356 14 27 29 41 47
151 158 157 212 155 128 173 202 162 185 158 224 185 203 192 191 201 239 48 323 255 333 5 10 272 354 292 281 206 352 5 4 358 359 342 355 41 1 9 20 20 26 29 36 39
184 161 141 168 161 122 208 181 192 155 212 186 195 177 224 242 254 269 271 254 272 318 304 33 43 28 286 349 66 15 356 337 329 9 344 7 17 37 26 26 21 20 30 35 43